Location: Gradaro
(45.0833°N, 10.8833°E)
Time: 10:22:35
(UTC+00:00)

NOSS 3-4 (C) - Pass Details

Date: 29 November 2020
Orbit: 878 x 1334 km, 63.4° (Epoch: 22 January)

Event Time Altitude Azimuth Distance (km) Brightness Sun altitude
Exits shadow 04:00:59 67° 251° (WSW) 980 3.2 -26.1°
Maximum altitude 04:01:43 78° 310° (NW) 939 3.2 -26.0°
Drops below altitude 10° 04:08:01 10° 36° (NE) 2,724 6.2 -24.9°
Sets 04:10:43 0° 38° (NE) 3,737 7.0 -24.4°
